Weather History for Munising, MI

Change the Weather History Date:

Monday, January 7, 2013

  Actual Average (KISQ) Record (KISQ)
Temperature  
Mean Temperature 28 °F -  
Max Temperature 36 °F 23 °F 42 °F (1949)
Min Temperature 19 °F 6 °F -18 °F (1968)
Degree Days  
Heating Degree Days 38    
Moisture  
Dew Point 17 °F    
Average Humidity 63    
Maximum Humidity 78    
Minimum Humidity 48    
Precipitation  
Precipitation 0.00 in - - ()
Sea Level Pressure  
Sea Level Pressure 29.92 in    
Wind  
Wind Speed 12 mph (SSW)    
Max Wind Speed 21 mph    
Max Gust Speed 38 mph    
Averages and records for this station are not official NWS values.
T = Trace of Precipitation, MM = Missing Value Source: NWS Daily Summary

Daily Weather History Graph

Daily Weather History Graph

Search for Another Location

Airport:

Trip Planner

Search our weather history database for the weather conditions in past years. The results will help you decide how hot, cold, wet, or windy it might be!

Date:

Astronomy

Jan. 07, 2013 Rise Set
Actual Time 8:29 AM EST 5:17 PM EST
Civil Twilight 7:54 AM EST 5:51 PM EST
Nautical Twilight 7:17 AM EST 6:29 PM EST
Astronomical Twilight 6:40 AM EST 7:05 PM EST
Moon 3:48 AM EST (1/7) 1:30 PM EST (1/7)
Length of Visible Light 9h 56m
Length of Day
8h 47m
Waning Crescent, 23% of the Moon is Illuminated
Jan 7
Waning Crescent
Jan 11
New
Jan 18
First Quarter
Jan 26
Full
Feb 3
Last Quarter

Hourly Weather History & Observations

Time (EST) Temp. Windchill Dew Point Humidity Pressure Visibility Wind Dir Wind Speed Gust Speed Precip Events Conditions
12:56 AM 19.9 °F 13.4 °F 12.9 °F 74% 30.21 in - SSW 4.6 mph - N/A   Unknown
1:56 AM 19.9 °F 9.3 °F 12.0 °F 71% 30.18 in - South 9.2 mph - N/A   Unknown
2:56 AM 19.9 °F 8.6 °F 12.0 °F 71% 30.17 in - South 10.4 mph - N/A   Unknown
3:56 AM 21.0 °F 11.4 °F 14.0 °F 74% 30.12 in - South 8.1 mph - N/A   Unknown
4:56 AM 24.1 °F 12.5 °F 17.1 °F 75% 30.07 in - South 12.7 mph 21.9 mph N/A   Unknown
5:56 AM 23.0 °F 11.1 °F 16.0 °F 74% 30.04 in - South 12.7 mph 23.0 mph N/A   Unknown
6:56 AM 23.0 °F 9.6 °F 15.1 °F 72% 30.00 in - South 16.1 mph 23.0 mph N/A   Unknown
7:56 AM 23.0 °F 10.1 °F 17.1 °F 78% 29.99 in - South 15.0 mph 24.2 mph N/A   Unknown
8:56 AM 24.1 °F 13.7 °F 16.0 °F 71% 29.96 in - South 10.4 mph 20.7 mph N/A   Unknown
9:56 AM 27.0 °F 14.7 °F 15.1 °F 61% 29.91 in - South 16.1 mph 26.5 mph N/A   Unknown
10:56 AM 30.9 °F 18.7 °F 15.1 °F 52% 29.88 in - SSW 19.6 mph 36.8 mph N/A   Unknown
11:56 AM 32.0 °F 20.1 °F 15.1 °F 50% 29.83 in - SSW 19.6 mph 32.2 mph N/A   Unknown
12:56 PM 33.1 °F 21.2 °F 16.0 °F 50% 29.77 in - SSW 20.7 mph 38.0 mph N/A   Unknown
1:56 PM 34.0 °F 23.0 °F 17.1 °F 50% 29.78 in - SSW 18.4 mph 28.8 mph N/A   Unknown
2:56 PM 36.0 °F 26.3 °F 18.0 °F 48% 29.77 in - SSW 16.1 mph 27.6 mph N/A   Unknown
3:56 PM 35.1 °F 25.5 °F 18.0 °F 50% 29.78 in - SSW 15.0 mph 24.2 mph N/A   Unknown
4:56 PM 35.1 °F 24.8 °F 19.0 °F 52% 29.79 in - South 17.3 mph 27.6 mph N/A   Unknown
5:56 PM 33.1 °F 24.4 °F 19.0 °F 56% 29.80 in - SSW 11.5 mph 21.9 mph N/A   Unknown
6:56 PM 33.1 °F 22.2 °F 19.9 °F 59% 29.80 in - South 17.3 mph 23.0 mph N/A   Unknown
7:56 PM 33.1 °F 23.4 °F 21.0 °F 61% 29.81 in - SSW 13.8 mph 24.2 mph N/A   Unknown
8:56 PM 33.1 °F 22.6 °F 21.0 °F 61% 29.83 in - SSW 16.1 mph 23.0 mph N/A   Unknown
9:56 PM 32.0 °F 23.0 °F 21.0 °F 64% 29.85 in - SSW 11.5 mph - N/A   Unknown
10:56 PM 32.0 °F 23.6 °F 21.0 °F 64% 29.88 in - SSW 10.4 mph - N/A   Unknown
11:56 PM 32.0 °F 23.6 °F 21.0 °F 64% 29.89 in - SSW 10.4 mph - N/A   Unknown